Fredericksburg, VA

5:35 AM EDT on September 26, 2017 (GMT -0400)
Shannon

Weather History for KEZF - April, 2013

Change the Weather History Date:

Friday, April 19, 2013

  Actual Average (KNYG) Record (KNYG)
Temperature  
Mean Temperature 68 °F -  
Max Temperature 81 °F 65 °F 89 °F (2004)
Min Temperature 55 °F 45 °F 32 °F (2001)
Cooling Degree Days 4    
Growing Degree Days 18 (Base 50)    
Moisture  
Dew Point 63 °F    
Average Humidity 78    
Maximum Humidity 100    
Minimum Humidity 53    
Precipitation  
Precipitation 0.38 in - - ()
Sea Level Pressure  
Sea Level Pressure 29.80 in    
Wind  
Wind Speed 12 mph (South)    
Max Wind Speed 24 mph    
Max Gust Speed 34 mph    
Visibility 10 miles    
Events Rain    
Averages and records for this station are not official NWS values.
T = Trace of Precipitation, MM = Missing Value Source: NWS Daily Summary

Daily Weather History Graph

Daily Weather History Graph

Search for Another Location

Airport or City:

Trip Planner

Search our weather history database for the weather conditions in past years. The results will help you decide how hot, cold, wet, or windy it might be!

Date:

Astronomy

Apr. 19, 2013 Rise Set
Actual Time 6:28 AM EDT 7:50 PM EDT
Civil Twilight 6:00 AM EDT 8:17 PM EDT
Nautical Twilight 5:27 AM EDT 8:50 PM EDT
Astronomical Twilight 4:53 AM EDT 9:25 PM EDT
Moon 1:37 PM EDT (4/19) 2:37 AM EDT (4/19)
Length of Visible Light 14h 17m
Length of Day
13h 21m
First Quarter, 61% of the Moon is Illuminated
Apr 19
First Quarter
Apr 25
Full
May 2
Last Quarter
May 9
New
May 18
First Quarter

Hourly Weather History & Observations

Time (EDT) Temp. Heat Index Dew Point Humidity Pressure Visibility Wind Dir Wind Speed Gust Speed Precip Events Conditions
12:15 AM 68.2 °F - 59.2 °F 73% 30.00 in 10.0 mi South 10.4 mph 17.3 mph N/A   Clear
12:35 AM 68.0 °F - 59.2 °F 73% 29.99 in 10.0 mi South 11.5 mph 17.3 mph N/A   Clear
12:55 AM 68.0 °F - 59.2 °F 73% 29.98 in 10.0 mi South 10.4 mph 17.3 mph N/A   Clear
1:15 AM 67.8 °F - 59.2 °F 74% 29.98 in 10.0 mi South 10.4 mph - N/A   Clear
1:35 AM 67.5 °F - 59.2 °F 75% 29.96 in 10.0 mi South 10.4 mph 16.1 mph N/A   Unknown
2:15 AM 66.7 °F - 59.0 °F 76% 29.95 in 10.0 mi South 11.5 mph - N/A   Unknown
2:35 AM 66.0 °F - 59.0 °F 78% 29.94 in 10.0 mi South 9.2 mph - N/A   Unknown
2:55 AM 65.7 °F - 59.0 °F 79% 29.93 in 10.0 mi South 9.2 mph - N/A   Clear
3:15 AM 65.7 °F - 59.2 °F 80% 29.92 in 10.0 mi South 6.9 mph - N/A   Scattered Clouds
3:35 AM 64.9 °F - 59.4 °F 82% 29.92 in 10.0 mi SSE 6.9 mph - N/A   Unknown
3:55 AM 65.7 °F - 59.9 °F 82% 29.91 in 10.0 mi South 8.1 mph - N/A   Overcast
4:15 AM 66.6 °F - 60.3 °F 80% 29.91 in 10.0 mi South 12.7 mph 17.3 mph N/A   Overcast
4:35 AM 66.7 °F - 60.8 °F 81% 29.91 in 10.0 mi SSE 8.1 mph - N/A   Overcast
4:55 AM 66.7 °F - 61.0 °F 82% 29.91 in 10.0 mi South 8.1 mph - N/A   Overcast
5:15 AM 66.6 °F - 61.7 °F 84% 29.90 in 10.0 mi South 9.2 mph - N/A   Overcast
5:35 AM 65.7 °F - 62.8 °F 90% 29.90 in 7.0 mi South 9.2 mph - N/A   Drizzle
5:55 AM 65.1 °F - 63.7 °F 95% 29.90 in 10.0 mi SSE 8.1 mph - N/A   Overcast
6:15 AM 64.4 °F - 63.7 °F 98% 29.90 in 10.0 mi SSE 6.9 mph - N/A   Overcast
6:35 AM 64.8 °F - 63.7 °F 96% 29.90 in 10.0 mi SSE 4.6 mph - N/A   Overcast
6:55 AM 64.9 °F - 63.9 °F 96% 29.90 in 10.0 mi SE 5.8 mph - N/A   Mostly Cloudy
7:15 AM 65.5 °F - 64.4 °F 96% 29.89 in 10.0 mi SSE 5.8 mph - N/A   Scattered Clouds
7:35 AM 66.2 °F - 64.4 °F 94% 29.89 in 10.0 mi SSE 6.9 mph - N/A   Mostly Cloudy
7:55 AM 66.9 °F - 64.4 °F 92% 29.88 in 10.0 mi SSE 8.1 mph - N/A   Overcast
8:15 AM 68.4 °F - 64.9 °F 89% 29.88 in 10.0 mi SSE 9.2 mph - N/A   Overcast
8:35 AM 69.1 °F - 64.9 °F 87% 29.87 in 10.0 mi South 12.7 mph 17.3 mph N/A   Overcast
8:55 AM 70.0 °F - 64.8 °F 83% 29.87 in 10.0 mi South 13.8 mph 19.6 mph N/A   Overcast
9:15 AM 70.7 °F - 64.2 °F 80% 29.86 in 10.0 mi South 10.4 mph 17.3 mph N/A   Overcast
9:35 AM 71.6 °F - 64.4 °F 78% 29.85 in 10.0 mi South 15.0 mph 19.6 mph N/A   Overcast
9:55 AM 73.8 °F - 64.4 °F 72% 29.84 in 10.0 mi South 16.1 mph 21.9 mph N/A   Mostly Cloudy
10:15 AM 73.9 °F - 63.9 °F 71% 29.84 in 10.0 mi South 16.1 mph 25.3 mph N/A   Scattered Clouds
10:35 AM 73.8 °F - 64.0 °F 72% 29.84 in 10.0 mi South 17.3 mph 24.2 mph N/A   Mostly Cloudy
10:55 AM 75.6 °F - 64.0 °F 67% 29.83 in 10.0 mi South 15.0 mph 24.2 mph N/A   Mostly Cloudy
11:15 AM 76.3 °F - 63.7 °F 65% 29.81 in 10.0 mi South 17.3 mph 28.8 mph N/A   Scattered Clouds
11:35 AM 75.9 °F - 63.5 °F 65% 29.82 in 10.0 mi SSW 16.1 mph 24.2 mph N/A   Mostly Cloudy
11:55 AM 77.2 °F - 63.5 °F 63% 29.81 in 10.0 mi South 17.3 mph 25.3 mph N/A   Mostly Cloudy
12:15 PM 76.8 °F - 63.7 °F 64% 29.79 in 10.0 mi South 12.7 mph 31.1 mph N/A   Mostly Cloudy
12:35 PM 77.4 °F - 63.7 °F 63% 29.78 in 10.0 mi South 10.4 mph - N/A   Overcast
12:55 PM 77.9 °F - 63.0 °F 60% 29.77 in 10.0 mi SSW 12.7 mph 25.3 mph N/A   Overcast
1:15 PM 79.3 °F - 63.9 °F 59% 29.75 in 10.0 mi South 9.2 mph 19.6 mph N/A   Scattered Clouds
1:35 PM 81.5 °F 82.9 °F 63.9 °F 55% 29.73 in 10.0 mi SSW 18.4 mph 31.1 mph N/A   Scattered Clouds
1:55 PM 81.0 °F 82.5 °F 64.0 °F 56% 29.72 in 10.0 mi South 18.4 mph 23.0 mph N/A   Scattered Clouds
2:15 PM 81.3 °F 82.5 °F 62.8 °F 53% 29.70 in 10.0 mi South 20.7 mph 33.4 mph N/A   Scattered Clouds
2:35 PM 81.3 °F 82.6 °F 63.3 °F 54% 29.69 in 10.0 mi South 16.1 mph 31.1 mph N/A   Scattered Clouds
2:55 PM 80.4 °F 81.7 °F 63.1 °F 55% 29.68 in 10.0 mi South 15.0 mph 26.5 mph N/A   Mostly Cloudy
3:15 PM 80.6 °F 81.9 °F 63.3 °F 55% 29.68 in 10.0 mi South 20.7 mph 29.9 mph N/A   Scattered Clouds
3:35 PM 80.8 °F 82.2 °F 63.5 °F 56% 29.66 in 10.0 mi South 17.3 mph 26.5 mph N/A   Clear
3:55 PM 80.8 °F 82.2 °F 63.7 °F 56% 29.65 in 10.0 mi South 17.3 mph 27.6 mph N/A   Clear
4:15 PM 81.0 °F 82.3 °F 63.5 °F 55% 29.65 in 10.0 mi South 13.8 mph 21.9 mph N/A   Scattered Clouds
4:35 PM 81.5 °F 82.8 °F 63.5 °F 54% 29.64 in 10.0 mi South 12.7 mph 27.6 mph N/A   Scattered Clouds
4:55 PM 81.5 °F 82.8 °F 63.3 °F 54% 29.64 in 10.0 mi SSW 17.3 mph 27.6 mph N/A   Clear
5:15 PM 81.5 °F 82.8 °F 63.5 °F 54% 29.63 in 10.0 mi South 13.8 mph 21.9 mph N/A   Mostly Cloudy
5:35 PM 81.1 °F 82.5 °F 63.5 °F 55% 29.62 in 10.0 mi South 17.3 mph 23.0 mph N/A   Scattered Clouds
5:55 PM 81.5 °F 82.8 °F 63.5 °F 54% 29.61 in 10.0 mi South 17.3 mph 27.6 mph N/A   Scattered Clouds
6:35 PM 65.3 °F - 65.3 °F 100% 29.69 in 7.0 mi SW 24.2 mph 33.4 mph 0.10 in Rain Rain
6:55 PM 65.3 °F - 64.8 °F 98% 29.68 in 10.0 mi SW 24.2 mph 34.5 mph 0.11 in Rain Heavy Rain
7:15 PM 65.5 °F - 64.9 °F 98% 29.68 in 10.0 mi SSW 15.0 mph 23.0 mph 0.01 in Rain Rain
7:35 PM 67.1 °F - 64.0 °F 90% 29.67 in 10.0 mi SSW 13.8 mph 19.6 mph 0.01 in Rain Light Rain
7:55 PM 67.3 °F - 64.6 °F 91% 29.68 in 10.0 mi South 12.7 mph 18.4 mph 0.02 in Rain Light Rain
8:15 PM 67.1 °F - 65.3 °F 94% 29.68 in 10.0 mi South 11.5 mph 17.3 mph N/A Rain Light Rain
8:35 PM 67.1 °F - 65.7 °F 95% 29.70 in 10.0 mi South 9.2 mph - N/A Rain Rain
8:55 PM 67.3 °F - 65.8 °F 95% 29.70 in 10.0 mi South 13.8 mph 20.7 mph N/A Rain Light Rain
9:15 PM 67.6 °F - 66.2 °F 95% 29.70 in 10.0 mi South 13.8 mph - N/A Rain Rain
9:35 PM 67.6 °F - 65.8 °F 94% 29.70 in 10.0 mi SSW 10.4 mph 19.6 mph N/A Rain Light Rain
9:55 PM 68.0 °F - 65.3 °F 91% 29.70 in 10.0 mi SSW 12.7 mph 17.3 mph 0.01 in Rain Light Rain
10:15 PM 68.0 °F - 64.9 °F 90% 29.71 in 10.0 mi SSW 17.3 mph 25.3 mph 0.01 in Rain Rain
10:35 PM 67.3 °F - 65.3 °F 93% 29.72 in 7.0 mi WSW 5.8 mph 17.3 mph 0.03 in Rain Rain
10:55 PM 67.1 °F - 65.7 °F 95% 29.72 in 10.0 mi North 4.6 mph - 0.04 in Rain Light Rain
11:15 PM 58.6 °F - 57.0 °F 94% 29.74 in 7.0 mi North 10.4 mph 21.9 mph 0.02 in Rain Rain
11:35 PM 56.3 °F - 55.0 °F 96% 29.75 in 5.0 mi North 11.5 mph 21.9 mph 0.14 in Rain Rain
11:55 PM 55.8 °F - 55.0 °F 97% 29.78 in 7.0 mi NNE 6.9 mph - 0.20 in Rain Light Rain